Location: Ernsee
(50.8780°N, 12.0389°E)
Time: 19:31:47
(UTC+00:00)

USA 238 - Pass Details

Date: 20 January 2020
Orbit: 1023 x 1189 km, 63.4° (Epoch: 10 February)

Event Time Altitude Azimuth Distance (km) Brightness Sun altitude
Exits shadow 04:51:15 31° 300° (WNW) 1,884 4.5 -20.4°
Maximum altitude 04:54:44 58° 236° (SW) 1,326 3.9 -19.9°
Drops below altitude 10° 05:01:56 10° 159° (SSE) 3,085 6.5 -18.8°
Sets 05:04:44 0° 156° (SSE) 4,057 7.2 -18.3°
